sat.trackr.live / text

‹ back to catalog

WEINA 1A

NORAD 43169 · 2018-011A

PAYLOAD ACTIVE UNKNOWN

§ Identity

Operator
Country
PRC
Launch date
2018-01-25
Launch site
XICLF
Launch vehicle
Mass (kg)
RCS (m²)

External: N2YO · Heavens-Above · Gunter

§ Orbital elements

Epoch: 2026-09-20T04:03:05.406048Z

Period
95.92 min
Inclination
34.9960°
Eccentricity
0.0002418
Mean motion
15.01306531 rev/d
Perigee alt
561.2 km
Apogee alt
564.5 km
Semi-major
6,941.0 km
B*
1.0281e-4
RAAN
304.3569°
Arg perigee
167.5949°
Mean anomaly
192.4819°
Rev number
47,240

§ Raw data

WEINA 1A1 43169U 18011A   26263.16881257  .00001320  00000+0  10281-3 0  99912 43169  34.9960 304.3569 0002418 167.5949 192.4819 15.01306531472408

JSON: /api/v1/satellites/43169 · /tle

For live sub-satellite position, see the globe view (requires WebGL).

§ Visibility from observer

Set your observer location to see the next 7 days of passes ≥ 10°. The values pass through the URL so the page stays shareable.

No JS? Fill the form by hand. The geolocation button needs JavaScript.